CW4352 Weather Reports


time (UTC)temp
F
wind
direction
speed
knots
gust
knots
rain 1hr
in
rain 24hr
in
rain mn
in
humidity
%
barometer
mb
20200407034704 48 276 2.6 4.3 0.00 0.00 0.00 53 1023.9
20200407034204 48 276 2.6 2.6 0.00 0.00 0.00 52 1023.9
20200407033705 48 266 1.7 2.6 0.00 0.00 0.00 52 1023.9
20200407033204 48 259 1.7 4.3 0.00 0.00 0.00 52 1023.9
20200407031705 49 272 2.6 2.6 0.00 0.00 0.00 50 1024.0
20200407030204 49 277 4.3 5.2 0.00 0.00 0.00 50 1024.0
20200407024704 50 254 2.6 6.1 0.00 0.00 0.00 49 1024.0
20200407023705 49 276 1.7 2.6 0.00 0.00 0.00 50 1024.0
20200407023204 50 272 1.7 4.3 0.00 0.00 0.00 50 1024.0
20200407021204 50 271 2.6 4.3 0.00 0.00 0.00 49 1024.0
20200407020705 50 280 3.5 4.3 0.00 0.00 0.00 49 1024.0
20200407020204 50 269 2.6 5.2 0.00 0.00 0.00 49 1024.0
20200407014704 50 274 2.6 4.3 0.00 0.00 0.00 49 1024.0
20200407013705 51 274 2.6 4.3 0.00 0.00 0.00 49 1023.9
20200407013204 51 274 2.6 2.6 0.00 0.00 0.00 48 1023.9
20200407011704 51 278 1.7 2.6 0.00 0.00 0.00 48 1023.9
20200407011204 51 273 2.6 2.6 0.00 0.00 0.00 48 1023.9
20200407010204 51 276 2.6 4.3 0.00 0.00 0.00 48 1023.9
20200407004204 52 270 2.6 4.3 0.00 0.00 0.00 47 1024.0
20200407000705 52 243 4.3 6.1 0.00 0.00 0.00 46 1024.0
20200407000204 52 263 4.3 6.1 0.00 0.00 0.00 46 1024.0
20200406234704 52 269 3.5 4.3 0.00 0.00 0.00 47 1024.0
20200406233705 52 271 2.6 2.6 0.00 0.00 0.00 46 1023.9
20200406233204 52 253 1.7 5.2 0.00 0.00 0.00 46 1023.9
20200406231704 53 248 3.5 6.1 0.00 0.00 0.00 46 1023.9
20200406231204 53 265 3.5 5.2 0.00 0.00 0.00 46 1023.9
20200406230704 53 264 4.3 7.0 0.00 0.00 0.00 45 1023.8
20200406230204 53 275 2.6 6.1 0.00 0.00 0.00 46 1023.8
20200406224205 53 245 2.6 7.0 0.00 0.00 0.00 46 1023.7
20200406223205 53 282 1.7 5.2 0.00 0.00 0.00 45 1023.7
20200406221705 54 264 2.6 5.2 0.00 0.00 0.00 45 1023.7
20200406221204 54 264 4.3 8.7 0.00 0.00 0.00 44 1023.7
20200406220204 54 270 2.6 6.1 0.00 0.00 0.00 44 1023.5
20200406214704 55 232 1.7 2.6 0.00 0.00 0.00 43 1023.5
20200406214204 55 248 2.6 2.6 0.00 0.00 0.00 43 1023.5
20200406211705 55 261 2.6 5.2 0.00 0.00 0.00 43 1023.4
20200406211204 55 243 5.2 6.1 0.00 0.00 0.00 43 1023.4
20200406204705 56 215 2.6 4.3 0.00 0.00 0.00 40 1023.4
20200406204204 56 209 2.6 4.3 0.00 0.00 0.00 39 1023.4
20200406203705 56 209 1.7 2.6 0.00 0.00 0.00 39 1023.4
20200406201704 58 273 1.7 2.6 0.00 0.00 0.00 37 1023.4
20200406200204 58 279 1.7 2.6 0.00 0.00 0.00 37 1023.2
20200406193705 59 277 1.7 2.6 0.00 0.00 0.00 35 1023.1
20200406190204 60 260 1.7 2.6 0.00 0.00 0.00 32 1022.7
20200406183705 60 298 1.7 2.6 0.00 0.00 0.00 32 1021.8
20200406181704 62 65 0.0 0.0 0.00 0.00 0.00 31 1021.8
20200406180706 62 65 0.0 0.0 0.00 0.00 0.00 29 1021.8
20200406180204 63 65 0.0 0.0 0.00 0.00 0.00 29 1021.8
20200406174705 63 65 0.0 0.0 0.00 0.00 0.00 27 1021.7
20200406174205 63 65 0.0 1.7 0.00 0.00 0.00 27 1021.7
20200406173205 63 65 0.9 2.6 0.00 0.00 0.00 28 1021.5
20200406170705 64 65 1.7 4.3 0.00 0.00 0.00 28 1021.4
20200406170204 64 65 3.5 7.0 0.00 0.00 0.00 28 1021.4
20200406164704 65 83 1.7 4.3 0.00 0.00 0.00 27 1021.4
20200406164204 65 117 0.9 2.6 0.00 0.00 0.00 28 1021.4
20200406163706 65 117 1.7 6.1 0.00 0.00 0.00 27 1021.4
20200406163204 65 116 4.3 7.0 0.00 0.00 0.00 28 1021.4
20200406161705 65 88 0.0 5.2 0.00 0.00 0.00 29 1021.3
20200406161204 65 89 0.9 5.2 0.00 0.00 0.00 28 1021.6
20200406160205 65 107 1.7 7.0 0.00 0.00 0.00 28 1021.6
20200406154705 65 91 2.6 7.0 0.00 0.00 0.00 28 1021.6
20200406154205 65 53 1.7 5.2 0.00 0.00 0.00 28 1021.6
20200406153704 66 79 4.3 7.0 0.00 0.00 0.00 28 1021.6
20200406153204 66 107 1.7 8.7 0.00 0.00 0.00 28 1021.6
20200406151704 66 46 2.6 5.2 0.00 0.00 0.00 29 1021.6
20200406151203 65 33 2.6 6.1 0.00 0.00 0.00 30 1021.8
20200406150705 65 90 5.2 7.0 0.00 0.00 0.00 28 1021.8
20200406150205 65 113 6.1 10.4 0.00 0.00 0.00 28 1021.8
20200406144705 65 137 5.2 7.8 0.00 0.00 0.00 27 1021.8
20200406144205 65 76 3.5 7.8 0.00 0.00 0.00 28 1021.8
20200406143204 65 88 6.1 11.3 0.00 0.00 0.00 28 1021.8
20200406141704 65 96 6.1 8.7 0.00 0.00 0.00 27 1021.9
20200406141204 65 130 5.2 12.2 0.00 0.00 0.00 27 1021.9
20200406140704 65 116 1.7 8.7 0.00 0.00 0.00 30 1021.9
20200406140204 65 92 6.1 10.4 0.00 0.00 0.00 29 1021.9
20200406134703 65 67 6.1 8.7 0.00 0.00 0.00 28 1022.1
20200406134204 65 95 5.2 10.4 0.00 0.00 0.00 27 1022.1
20200406133705 65 114 4.3 7.8 0.00 0.00 0.00 28 1022.3
20200406130705 64 26 5.2 7.8 0.00 0.00 0.00 30 1022.3
20200406130204 64 47 6.1 11.3 0.00 0.00 0.00 31 1022.3
20200406124705 64 105 1.7 10.4 0.00 0.00 0.00 32 1022.4
20200406124204 64 63 3.5 8.7 0.00 0.00 0.00 30 1022.4
20200406123705 64 62 5.2 7.8 0.00 0.00 0.00 30 1022.6
20200406123205 64 20 4.3 10.4 0.00 0.00 0.00 32 1022.6
20200406121704 64 45 5.2 10.4 0.00 0.00 0.00 31 1022.6
20200406120705 64 57 0.9 7.0 0.00 0.00 0.00 31 1022.6
20200406120205 63 17 0.0 10.4 0.00 0.00 0.00 33 1022.6
20200406114705 64 94 2.6 7.0 0.00 0.00 0.00 31 1022.6
20200406114205 64 53 3.5 10.4 0.00 0.00 0.00 31 1022.6
20200406113705 64 51 2.6 7.8 0.00 0.00 0.00 32 1022.8
20200406113204 64 88 2.6 8.7 0.00 0.00 0.00 31 1022.8
20200406111704 63 42 1.7 7.0 0.00 0.00 0.00 35 1022.8
20200406110705 63 356 5.2 7.8 0.00 0.00 0.00 35 1022.8
20200406104704 63 29 5.2 8.7 0.00 0.00 0.00 33 1022.9
20200406103705 62 29 1.7 7.8 0.00 0.00 0.00 34 1022.9
20200406103205 62 63 2.6 8.7 0.00 0.00 0.00 33 1022.8
20200406101204 61 355 2.6 7.0 0.00 0.00 0.00 35 1023.0
20200406100705 61 30 2.6 6.1 0.00 0.00 0.00 37 1023.0
20200406100204 61 28 4.3 7.8 0.00 0.00 0.00 36 1023.0
20200406094705 61 26 4.3 7.8 0.00 0.00 0.00 40 1023.0
20200406094205 61 22 4.3 7.8 0.00 0.00 0.00 40 1023.0
20200406093705 60 40 3.5 6.1 0.00 0.00 0.00 41 1023.1
20200406093204 60 38 3.5 7.8 0.00 0.00 0.00 40 1023.1
20200406091704 60 44 2.6 8.7 0.00 0.00 0.00 40 1023.2
20200406091204 60 30 5.2 7.0 0.00 0.00 0.00 40 1023.2
20200406090704 60 37 3.5 6.1 0.00 0.00 0.00 41 1023.2
20200406090204 60 19 2.6 6.1 0.00 0.00 0.00 39 1023.1
20200406084702 60 142 0.9 2.6 0.00 0.00 0.00 40 1023.0
20200406083703 60 143 0.9 2.6 0.00 0.00 0.00 39 1023.0
20200406081703 58 144 0.0 0.0 0.00 0.00 0.00 40 1023.0
20200406081203 57 144 0.0 0.0 0.00 0.00 0.00 40 1023.0
20200406080704 57 144 0.0 0.0 0.00 0.00 0.00 40 1023.0
20200406080203 56 144 0.0 6.1 0.00 0.00 0.00 42 1022.9
20200406074703 55 271 0.0 2.6 0.00 0.00 0.00 43 1022.8
20200406074204 55 271 0.0 0.0 0.00 0.00 0.00 45 1022.8
20200406073705 54 271 0.0 0.0 0.00 0.00 0.00 46 1022.8
20200406073203 54 271 0.0 0.0 0.00 0.00 0.00 46 1022.8
20200406071703 53 272 0.0 0.0 0.00 0.00 0.00 49 1022.7
20200406071203 53 272 0.0 0.0 0.00 0.00 0.00 47 1022.7
20200406070704 52 272 0.0 0.0 0.00 0.00 0.00 47 1022.7
20200406061704 47 272 1.7 2.6 0.00 0.00 0.00 53 1022.4
20200406061203 47 272 1.7 2.6 0.00 0.00 0.00 53 1022.4
20200406053703 46 273 2.6 4.3 0.00 0.00 0.00 48 1022.1
20200406053203 46 268 2.6 4.3 0.00 0.00 0.00 48 1022.1
20200406051703 46 259 1.7 2.6 0.00 0.00 0.00 48 1021.8
20200406051203 46 252 2.6 2.6 0.00 0.00 0.00 49 1021.8
20200406050703 46 263 1.7 2.6 0.00 0.00 0.00 49 1021.8
20200406044704 46 265 1.7 2.6 0.00 0.00 0.00 50 1021.5
20200406044204 46 265 2.6 5.2 0.00 0.00 0.00 50 1021.5
20200406043203 46 265 3.5 5.2 0.00 0.00 0.00 50 1021.3
20200406041704 46 261 1.7 2.6 0.00 0.00 0.00 49 1021.3
20200406041203 46 260 2.6 2.6 0.00 0.00 0.00 49 1021.3
20200406040202 46 244 4.3 6.1 0.00 0.00 0.00 48 1021.3